Regional Weather Roundup
Issued by NWS Sterling, VA

Home | Current Version | Previous Version | Text Only | Print | Product List | Glossary On
Versions: 1 2 3 4 5 6 7 8 9 10 11 12 13 14 15 16 17 18 19 20 21 22 23 24 25 26 27 28 29 30 31 32 33 34 35 36 37 38 39 40 41 42 43 44 45 46 47 48 49 50
000
ASUS41 KLWX 251410
RWRLWX

REGIONAL WEATHER ROUNDUP
NATIONAL WEATHER SERVICE BALTIMORE MD/WASHINGTON DC
1000 AM EDT SUN SEP 25 2016

Note: "FAIR" indicates few or no clouds below 12,000 feet
with no significant weather and/or obstructions to visibility.
 TC=TEMPERATURE CELSIUS

 * =Non NWS site. Station does not report precipitation (e.g. rain,
    snow, etc.), thunder, or fog.

DCZ001-MDZ009-015-VAZ040>042-051-053>054-251500-
WASHINGTON METRO

CITY           SKY/WX    TMP DP  RH WIND       PRES   REMARKS
WASHINGTON NAT MOSUNNY   64  47  53 NE9       30.23S
DULLES         MOSUNNY   63  43  48 VRB6      30.22F
ANDREWS AFB    SUNNY     63  49  61 NE8       30.21S
FT BELVOIR     MOSUNNY   64  46  51 VRB1      30.22S
QUANTICO       PTSUNNY   65  52  62 E8        30.23S
COLLEGE PARK*  SUNNY     61  43  51 E6        30.22S
LEESBURG*      SUNNY     63  50  63 NE6       30.24F
MANASSAS*      CLOUDY    63  46  55 E3        30.23R
GAITHERSBURG*  SUNNY     61  45  55 E3        30.26S

$$

MDZ006>007-011-014-251500-
BALTIMORE METRO

CITY           SKY/WX    TMP DP  RH WIND       PRES   REMARKS
BWI AIRPORT    MOSUNNY   63  40  42 E12       30.22S
MD SCIENCE CTR   N/A     63  41  44 MISG      30.23S
MARTIN STATE   SUNNY     63  48  59 N8        30.24R
ANNAPOLIS      SUNNY     65  50  58 NE9       30.21S
FORT MEADE*    SUNNY     63  45  51 NE7       30.25S

$$

MDZ012-015-019>023-251500-
MARYLAND EASTERN SHORE

CITY           SKY/WX    TMP DP  RH WIND       PRES   REMARKS
OCEAN CITY     SUNNY     68  56  65 N7        30.18S
SALISBURY      SUNNY     64  55  72 N8        30.19S
BAY BRIDGE AP* SUNNY     63  46  55 MISG      30.22S
CAMBRIDGE*     SUNNY     61  48  63 N3        30.20S
EASTON*        SUNNY     63  48  59 E6        30.25R

$$

MDZ017>025-251500-
SOUTHERN MARYLAND

CITY           SKY/WX    TMP DP  RH WIND       PRES   REMARKS
PATUXENT RIVER MOSUNNY   66  49  54 NE7       30.21R
ST INIGOES     SUNNY     67  52  58 NE7       30.20S
LEONARDTOWN*   SUNNY     63  48  59 NE3       30.22S

$$

MDZ003>005-251500-
NORTH CENTRAL MARYLAND

CITY           SKY/WX    TMP DP  RH WIND       PRES   REMARKS
FREDERICK*     SUNNY     61  48  63 NE7       30.26S
HAGERSTOWN APT SUNNY     64  40  41 NE8       30.23S

$$

MDZ501>502-251500-
WESTERN MARYLAND

CITY           SKY/WX    TMP DP  RH WIND       PRES   REMARKS
OAKLAND*       SUNNY     54  45  71 SE9       30.23R
CUMBERLAND*    CLOUDY    59  48  67 CALM      30.27S

$$

VAZ025>031-251500-
SHENANDOAH VALLEY

CITY           SKY/WX    TMP DP  RH WIND       PRES   REMARKS
WINCHESTER*    MOSUNNY   61  43  51 E3        30.23S
FRONT ROYAL*   CLOUDY    59  48  67 CALM      30.22F
LURAY*         CLOUDY    59  50  72 N3        30.22F
NEW MARKET*    CLOUDY   N/A N/A N/A NE7       30.22S
STAUNTON*      DRZL/FOG  60  59  97 NW6       30.23S VSB 1
WAYNESBORO*    CLOUDY    62  57  86 MISG      30.22S

$$

WVZ021-048>050-054>055-251500-
EASTERN WEST VIRGINIA PANHANDLE

CITY           SKY/WX    TMP DP  RH WIND       PRES   REMARKS
MARTINSBURG    SUNNY     61  44  53 VRB3      30.23S
PETERSBURG*    CLOUDY    62  50  65 CALM      30.22S

$$

VAZ036>039-050-251500-
CENTRAL FOOTHILLS

CITY           SKY/WX    TMP DP  RH WIND       PRES   REMARKS
CHARLOTTESVILL PTSUNNY   60  56  86 NE10      30.22R FOG
CULPEPER*      CLOUDY    61  50  66 N3        30.24S
ORANGE*          N/A     59  57  94 NW6       30.24S
GORDONSVILLE*  CLOUDY    59  57  94 NE6       30.21R
WARRENTON*     CLOUDY    61  46  56 NE5       30.23S

$$

VAZ055>057-251500-
NORTH AND CENTRAL PIEDMONT

CITY           SKY/WX    TMP DP  RH WIND       PRES   REMARKS
FREDERICKSBRG* PTSUNNY   65  55  71 E5        30.21S
STAFFORD*      CLOUDY    63  50  62 NE10      30.26S

$$

NCZ024-NYZ072-PAZ021-071-VAZ022-071-251500-
OTHER REGIONAL OBSERVATIONS

CITY           SKY/WX    TMP DP  RH WIND       PRES   REMARKS
NEW YORK CITY  SUNNY     59  42  53 VRB6      30.22F
PHILADELPHIA   MOSUNNY   63  41  44 N6        30.23R
PITTSBURGH     MOSUNNY   57  49  74 NE5       30.20S
ROANOKE        CLOUDY    68  63  84 SE7       30.21S
RICHMOND       PTSUNNY   67  58  72 NE10      30.19S
RALEIGH        CLOUDY    70  67  90 E8        30.16R

$$

ANZ530>537-251500-
MARINE OBSERVATIONS

STATION/POSITION TIME  TEMP    WIND        PRES
                       AIR SEA DIR/SP/G
                 (UTC) (F)     (DEG/KT/KT) (MB)
THOMAS PT LIGHT  1400   62 75   50/ 10/ 11 1024.5R
BALT KEY BRIDGE  1348   60      30/  8/  9 1023.4S
COVE POINT       1348   62      70/  9/ 11 1023.6R
LEWISETTA        1348   66 74   80/  6/  8 1022.3R
SOLOMONS ISLAND  1348   64 76   40/  9/ 11   N/A
PINEY POINT      1348           80/  9/ 11   N/A

$$




USA.gov is the U.S. government's official web portal to all federal, state and local government web resources and services.